Miscellaneous Local Product
Issued by NWS Hastings, NE

Home | Current Version | Previous Version | Text Only | Print | Product List | Glossary On
Versions: 1 2 3 4 5 6 7 8 9 10 11 12 13 14 15 16 17 18 19 20 21 22 23 24 25 26 27 28 29 30 31 32 33 34 35 36 37 38 39 40 41 42 43 44 45 46 47 48 49 50
000
AXUS43 KGID 232102
MISGRI

GID CWA HOURLY WEATHER ROUNDUP
NATIONAL WEATHER SERVICE HASTINGS NE
400 PM CDT THU MAR 23 2017

NOTE: "FAIR" INDICATES FEW OR NO CLOUDS BELOW 12,000 FEET WITH NO
SIGNIFICANT WEATHER AND/OR OBSTRUCTIONS TO VISIBILITY.

...SOUTH CENTRAL NEBRASKA...

CITY           SKY/WX    TMP DP  RH WIND       PRES   REMARKS
GRAND ISLAND   CLOUDY    63  57  81 S10       29.64F
HASTINGS       CLOUDY    68  56  65 S21G31    29.64F
KEARNEY        PTSUNNY   70  57  64 S23G32    29.61F
ORD            CLOUDY    56  53  90 SE10      29.61F FOG
YORK           CLOUDY    66  55  68 S17G23    29.66F
AURORA         CLOUDY    65  56  72 S14G21    29.64F
LEXINGTON      CLOUDY    78  54  43 S16       29.56F
HOLDREGE       MOSUNNY   76  55  48 S26G32    29.59F
HEBRON         MOSUNNY   72  55  54 S24G37    29.67F

...NEBRASKA PANHANDLE...

CITY           SKY/WX    TMP DP  RH WIND       PRES   REMARKS
CHADRON        SUNNY     68  41  37 NE8       29.59S
ALLIANCE       SUNNY     72  30  21 N7        29.56F
SCOTTSBLUFF    SUNNY     69  37  30 SE12      29.57F
SIDNEY         SUNNY     75  27  17 MISG      29.57F

...WESTERN AND NORTH CENTRAL NEBRASKA...

CITY           SKY/WX    TMP DP  RH WIND       PRES   REMARKS
VALENTINE      MOSUNNY   61  45  55 VRB3      29.59S
AINSWORTH      CLOUDY    57  50  77 SW8       29.60S
ONEILL         CLOUDY    55  53  91 S15       29.63R
BROKEN BOW     CLOUDY    58  30  34 S9        29.61F
IMPERIAL       SUNNY     75  47  36 SE10G18   29.54F
NORTH PLATTE   SUNNY     70  56  61 SE9       29.57F
MCCOOK         SUNNY     85  45  24 S15G24    29.51F

...EASTERN NEBRASKA...

CITY           SKY/WX    TMP DP  RH WIND       PRES   REMARKS
NORFOLK        CLOUDY    60  52  74 S21G26    29.65F
SO SIOUX CITY  CLOUDY    55  44  66 SE9       29.70F THUNDER
TEKAMAH        CLOUDY    64  43  46 E14       29.70F
COLUMBUS       CLOUDY    63  54  72 SE13      29.69F
ALBION         CLOUDY    58  54  85 S20       29.66S
OMAHA EPPLEY   CLOUDY    71  50  47 SE12      29.71F
OFFUTT AFB     CLOUDY    73  51  46 SE13      29.70F
MILLARD        CLOUDY    73  54  51 SE14      29.69F
LINCOLN        CLOUDY    76  54  46 S29G36    29.67F
NEBRASKA CITY  PTSUNNY   73  46  37 S26       29.70F
BEATRICE       MOSUNNY   77  55  45 S26G33    29.68F
FALLS CITY     SUNNY     79  52  38 S26G37    29.74F

...NORTHERN KANSAS...

CITY           SKY/WX    TMP DP  RH WIND       PRES   REMARKS
GOODLAND       SUNNY     84  35  17 S13G25    29.54F
HILL CITY      SUNNY     84  56  38 S23G35    29.58F
NORTON         CLEAR     79  46  31 S22G36    29.55F
PHILLIPSBURG   SUNNY     82  54  36 S25G35    29.58F
HAYS             N/A     83  53  35 S35G43    29.58F
RUSSELL        SUNNY     81  55  40 S29G36    29.62F
CONCORDIA      MOSUNNY   69  57  65 S24G33    29.69F
SALINA         MOSUNNY   75  58  55 S20G36    29.70F
TOPEKA         SUNNY     80  55  42 S25       29.76F



USA.gov is the U.S. government's official web portal to all federal, state and local government web resources and services.